225  
ASUS44 KSHV 221410  
RWRSHV  
 
WEATHER ROUNDUP FOR THE FOUR STATE AREA  
NATIONAL WEATHER SERVICE SHREVEPORT LA  
900 AM CDT MON OCT 22 2018  
 
NOTE: "FAIR" INDICATES FEW OR NO CLOUDS BELOW 12000 FEET  
WITH NO SIGNIFICANT WEATHER AND/OR S TO VISIBILITY
.  
 
!LAZ001-LAZ014-TXZ097-221500  
SHREVEPORT...MONROE...TEXARKANA RADIOS  
 
CITY SKY/WX TMP DP RH WIND PRES REMARKS
 
SHREVEPORT CLOUDY 50 44 80 E5 30.23  
MONROE N/A 49 45 86 NE5 30.27R  
NATCHITOCHES N/A 49 44 84 NE3 30.24S  
TEXARKANA CLOUDY 42 39 89 E5 30.27R  

 
 
!LAZ001-LAZ014-TXZ097-221500  
OTHER LOCATIONS...  
 
CITY SKY/WX TMP DP RH WIND PRES REMARKS
 
DOWNTOWN SHV CLOUDY 48 43 82 CALM 30.25R  
BOSSIER CITY N/A 47 42 84 CALM 30.23  
RUSTON N/A 44 42 93 CALM 30.29R  
LITTLE ROCK PTSUNNY 45 43 93 CALM 30.28R  
EL DORADO N/A 46 42 86 NE6 30.27R  
JACKSON N/A 49 40 71 CALM 30.25  
NEW ORLEANS PTSUNNY 64 55 72 NE10 30.19R  
HOUSTON CLOUDY 54 46 74 NE7 30.18R  
LUFKIN CLOUDY 51 45 79 E6 30.21R  
TYLER CLOUDY 48 44 86 E3 30.23R  
DAL FT WORTH CLOUDY 51 46 83 SE5 30.20R  

 
 
!TXZ136-TXZ165-221500  
TYLER...LUFKIN RADIOS  
 
CITY SKY/WX TMP DP RH WIND PRES REMARKS
 
TYLER CLOUDY 48 44 86 E3 30.23R  
GILMER CLOUDY 46 43 91 CALM 30.25R  
LONGVIEW CLOUDY 48 47 96 CALM 30.24R  
LUFKIN CLOUDY 51 45 79 E6 30.21R  

 
 
!TXZ136-TXZ165-221500  
OTHER LOCATIONS...  
 
CITY SKY/WX TMP DP RH WIND PRES REMARKS
 
NACOGDOCHES N/A 49 44 83 N3 30.23  
BEAUMONT N/A 56 46 69 NE7 30.18R  
HOUSTON CLOUDY 54 46 74 NE7 30.18R  
COLLEGE STN CLOUDY 55 48 77 NE6 30.21R  
AUSTIN CLOUDY 59 50 72 NE5 30.20R  
DAL FT WORTH CLOUDY 51 46 83 SE5 30.20R  
TEXARKANA CLOUDY 42 39 89 E5 30.27R  
SHREVEPORT CLOUDY 50 44 80 E5 30.23  
FORT POLK PTSUNNY 51 42 73 NE6 30.20  
LAKE CHARLES N/A 56 47 71 NE12 30.20R  

 
 
 
CLICK HERE TO GO TO PREVIOUS BULLETINS.

The Nexlab LA Page
The Nexlab TX Page
The Nexlab AR Page
The Nexlab OK Page Main Text Page